Location: Unspecified
(0.0000°N, 0.0000°E)
Time: 16:18:33
(UTC+00:00)

SAR-Lupe-2 - Visible Passes

Search period start: 31 May 2023 00:00
Search period end: 10 June 2023 00:00
Orbit: 481 x 482 km, 98.1° (Epoch: 05 September)

Date Brightness Start Highest point End Pass type
(mag) Time Alt. Az. Time Alt. Az. Time Alt. Az.
31 May 6.7 03:31:21 10° ENE 03:32:09 13° ENE 03:32:09 13° ENE visible
31 May 5.6 05:05:10 10° NW 05:06:24 12° WNW 05:06:24 12° WNW visible
01 Jun 4.5 04:37:15 10° NNW 04:39:55 30° WNW 04:39:55 30° WNW visible
02 Jun 4.2 04:10:45 10° NNE 04:13:26 50° NNE 04:13:26 50° NNE visible
03 Jun 6.0 03:45:07 10° NE 03:46:58 22° ENE 03:46:58 22° ENE visible
04 Jun 5.1 04:52:18 10° NNW 04:54:43 20° WNW 04:54:43 20° WNW visible
05 Jun 3.9 04:25:17 10° N 04:28:13 50° NW 04:28:13 50° NW visible
06 Jun 5.0 03:59:11 10° NNE 04:01:43 36° ENE 04:01:43 36° ENE visible
07 Jun 6.6 03:34:08 10° ENE 03:35:14 14° ENE 03:35:14 14° ENE visible
07 Jun 5.6 05:07:53 10° NW 05:09:23 12° WNW 05:09:27 12° W visible
08 Jun 4.4 04:40:00 10° NNW 04:42:57 32° WNW 04:42:57 32° WNW visible
09 Jun 3.9 04:13:28 10° NNE 04:16:26 60° NNE 04:16:26 60° NNE visible
